Theta_e
343 347 350 351 351 353 353 352 351 351 351 350 350 350 350 350 350 350 353 355 353 351 352 355 354 354 354 355 356 356 357 357 359 358 358 358 358 358 357 357 356 354 357
347 348 353 354 353 352 351 352 351 351 350 349 349 349 349 348 348 348 350 352 354 352 354 354 355 356 356 354 355 355 354 355 359 359 357 356 357 357 355 354 355 355 355
346 349 348 352 352 352 352 351 351 351 350 349 348 347 347 347 346 347 347 348 351 353 353 354 353 353 354 355 355 354 354 355 357 357 355 350 351 356 354 355 356 356 356
347 349 349 351 351 351 351 350 349 349 348 347 347 346 346 346 346 345 345 345 346 347 351 351 352 351 351 351 351 351 351 352 353 353 352 350 349 354 354 355 355 355 355
347 349 350 349 349 348 347 347 346 346 346 346 345 344 342 344 344 344 344 344 344 344 344 346 349 349 348 349 349 349 350 348 349 350 350 352 350 350 351 351 351 352 354
343 343 344 345 343 342 341 340 339 338 338 338 339 340 344 343 343 343 344 344 343 344 344 343 342 343 344 345 345 345 346 346 347 345 346 349 349 351 349 350 350 350 350
338 339 340 342 341 340 340 339 339 338 337 337 338 339 339 338 339 340 342 342 342 342 343 343 343 343 340 340 341 341 341 343 345 343 343 345 344 351 349 349 349 348 349
330 330 332 337 338 337 337 338 337 338 339 337 337 335 336 336 336 336 338 340 341 341 342 341 342 342 343 341 340 340 341 341 338 340 338 341 348 349 349 348 348 348 348
325 325 326 328 329 333 335 334 334 333 334 334 333 333 334 332 333 334 334 334 334 335 336 338 339 339 340 340 340 341 342 342 340 338 337 339 349 350 350 348 347 346 345
325 325 326 327 326 326 327 330 330 330 331 331 331 331 329 327 327 328 329 329 329 330 330 332 334 336 339 339 339 340 339 339 336 336 334 337 345 349 350 349 347 346 345
322 325 326 326 327 327 326 326 324 325 326 326 326 325 323 324 323 322 323 325 325 326 327 327 329 331 331 334 336 337 338 335 333 333 335 337 343 348 350 349 347 345 345
323 324 325 326 324 323 322 325 325 322 325 325 323 323 321 321 321 319 318 319 320 322 323 323 324 327 327 330 336 336 336 336 334 333 334 333 339 346 349 348 347 346 345
323 322 321 322 322 320 320 321 322 324 324 322 321 320 321 319 320 318 318 317 318 318 318 319 320 321 326 327 332 332 330 331 334 335 334 335 337 343 346 347 347 346 344
321 319 320 319 320 321 319 320 321 322 322 320 319 320 319 317 318 318 318 318 318 317 317 317 317 321 322 325 325 329 330 331 329 331 333 336 339 340 345 345 346 345 344
319 322 318 320 321 320 319 319 320 321 320 319 319 319 318 317 318 318 318 318 319 319 318 317 317 318 320 322 324 325 326 327 330 333 334 332 337 341 343 344 344 344 344
324 322 317 319 321 320 319 319 319 321 321 320 319 318 318 319 319 318 318 318 318 319 319 318 318 318 318 320 321 324 325 325 326 330 332 334 331 332 335 337 338 341 342
325 322 317 317 319 320 320 319 319 320 319 319 319 318 318 319 320 320 318 318 318 319 320 319 319 318 317 318 318 320 323 325 324 325 326 333 332 330 329 331 331 336 337
323 320 318 317 317 319 319 319 318 319 318 320 320 318 319 319 320 320 318 318 319 319 319 318 318 316 316 316 317 318 319 322 323 324 325 325 332 329 330 331 332 333 335
322 320 317 316 317 318 318 319 320 320 319 319 319 318 319 319 319 320 319 318 320 318 318 318 318 317 315 315 315 315 318 318 320 321 322 324 326 327 329 332 333 333 334
320 318 316 317 317 317 319 320 321 320 319 319 318 319 320 320 319 320 319 320 319 317 318 318 318 318 317 316 315 314 316 317 318 319 321 322 324 326 328 332 331 330 332
320 318 319 317 317 317 317 316 316 315 317 318 319 319 320 320 320 320 318 319 319 318 318 319 317 316 315 317 314 313 315 317 317 318 319 319 321 323 325 328 331 329 329
321 323 321 320 318 319 319 320 319 318 318 317 318 320 320 320 319 319 319 318 319 317 319 319 316 312 314 317 313 312 309 312 315 318 318 318 320 322 323 324 327 329 330
323 325 323 321 319 319 319 319 319 319 318 317 317 317 318 319 319 319 320 319 318 318 317 319 318 313 310 314 317 313 308 307 311 318 320 323 322 322 322 322 325 328 330
325 326 324 322 318 319 319 318 317 315 313 316 316 317 318 319 319 319 320 319 319 318 319 319 319 315 312 310 312 317 316 314 308 308 318 321 321 319 324 323 324 327 331
326 324 323 322 320 320 318 318 316 316 316 316 317 318 319 319 320 318 319 319 319 319 320 320 320 314 316 313 311 310 313 315 313 309 306 314 319 319 318 322 325 326 332
325 322 322 320 320 319 318 318 318 316 317 316 317 316 316 317 318 320 319 319 320 320 319 319 319 315 318 316 315 313 312 309 307 306 306 308 311 319 319 319 322 326 328
Wind_Speed
3 6 11 11 10 11 13 13 13 13 14 15 15 15 15 15 14 14 14 13 9 7 7 6 7 7 8 9 9 8 6 8 10 11 11 11 13 14 13 12 12 13 13
8 8 11 14 14 13 12 12 14 14 14 14 15 15 15 15 15 15 15 15 12 7 6 7 4 6 7 7 6 7 6 4 9 10 11 10 11 12 11 11 8 13 13
11 8 11 14 14 14 14 15 14 14 14 14 15 15 14 15 15 15 16 16 16 16 10 10 9 7 7 6 6 6 5 5 6 9 8 5 7 10 10 10 12 12 12
10 8 9 15 16 16 17 16 15 14 15 15 14 14 13 14 14 15 16 15 15 15 16 14 13 11 8 6 6 5 5 5 5 5 6 6 5 7 8 11 11 11 12
14 12 14 18 17 17 17 16 16 15 14 14 13 13 12 11 12 12 13 13 14 14 15 14 13 11 9 8 7 5 4 3 3 4 5 3 6 4 6 7 9 9 10
14 14 17 18 18 18 18 17 16 16 15 14 13 13 15 13 12 11 11 11 11 12 12 12 12 12 11 10 7 7 6 5 5 2 3 3 5 9 7 6 7 9 9
14 13 16 18 19 18 17 16 15 14 14 14 13 14 14 13 15 15 13 12 12 12 11 11 10 9 8 8 8 7 7 7 8 5 6 5 6 4 8 8 9 9 10
14 12 12 16 17 18 16 14 15 13 12 13 13 12 13 13 14 14 14 14 13 13 12 11 10 9 8 7 7 7 7 7 7 6 6 7 4 8 10 9 10 10 11
13 12 11 12 13 15 15 14 14 13 10 9 9 10 12 13 14 14 14 14 13 13 13 12 10 8 8 5 6 7 8 8 10 5 6 5 8 12 12 11 11 10 11
12 12 11 10 10 9 9 13 11 11 10 10 10 11 11 10 12 12 12 13 13 12 11 11 11 11 10 7 4 4 8 9 8 7 5 5 7 14 14 13 12 12 11
10 10 10 10 9 7 7 7 6 7 7 7 7 9 7 6 6 8 10 13 14 15 14 12 11 9 9 3 2 3 6 5 7 5 5 3 11 16 16 14 13 12 11
11 10 8 8 8 7 6 7 6 5 5 5 6 6 5 5 5 6 6 9 10 12 13 13 12 10 4 4 3 5 4 5 5 6 5 4 11 16 16 15 14 14 13
8 7 7 7 8 9 7 5 3 3 3 4 6 5 5 4 5 5 4 5 6 8 6 9 9 7 7 4 3 4 5 6 4 4 5 7 10 16 17 15 15 15 15
8 5 6 8 7 7 5 6 5 3 3 3 5 6 4 4 5 5 5 6 5 5 6 6 6 8 9 8 6 6 6 5 3 3 4 7 10 15 19 16 16 16 15
6 5 6 6 7 5 6 5 5 4 3 3 3 5 4 4 4 5 5 5 5 5 5 6 7 7 8 9 8 6 6 6 7 4 2 5 10 13 19 16 15 16 16
6 5 4 6 5 5 5 5 3 3 2 2 3 4 4 4 4 5 5 5 6 6 6 6 6 7 7 8 9 8 7 6 7 6 5 4 5 3 3 5 6 11 14
5 5 1 3 4 5 5 5 3 3 3 2 2 4 5 5 4 5 4 5 5 6 8 6 7 7 7 7 8 8 8 7 7 8 6 5 5 4 5 6 6 9 7
4 5 3 2 4 5 4 4 4 4 4 3 2 3 5 5 5 5 5 5 6 6 6 6 6 7 7 7 6 8 7 8 9 10 8 6 6 5 10 12 11 8 12
4 5 3 3 5 5 3 2 3 4 4 4 3 4 5 5 6 5 5 5 6 5 6 5 7 7 7 7 8 8 8 8 10 9 8 10 9 8 5 10 15 12 12
4 3 0 1 1 2 1 2 2 3 4 3 3 4 5 4 5 5 5 6 6 6 7 7 8 7 7 7 8 8 9 9 9 9 10 9 10 9 7 9 7 7 15
6 5 5 3 1 3 3 4 4 5 5 4 4 5 6 5 6 5 5 6 7 7 8 8 7 7 6 4 6 7 7 9 11 10 9 10 12 10 9 8 7 6 8
12 9 8 5 0 3 2 1 3 4 4 5 5 5 5 7 6 6 6 6 6 7 7 7 6 4 5 3 5 6 5 4 4 5 6 8 10 8 9 10 9 9 8
12 11 9 6 5 4 4 3 3 3 4 3 4 5 6 7 6 7 6 6 6 5 6 6 5 4 4 4 6 4 4 4 6 2 2 2 4 6 8 9 11 11 10
12 10 9 7 6 5 3 3 4 5 6 5 5 5 5 5 6 6 5 5 6 5 6 5 4 4 5 6 5 6 8 7 4 5 2 2 0 4 6 7 9 10 9
9 11 8 7 7 4 4 4 4 6 5 6 5 7 5 5 5 5 5 6 6 5 5 7 7 4 4 5 4 4 7 6 8 7 7 4 3 2 3 5 6 8 8
6 6 7 7 6 4 5 4 6 7 8 7 7 6 5 5 5 5 6 6 6 6 7 7 7 5 5 4 6 6 7 5 3 3 6 7 7 1 2 2 4 4 5
Wind_Direction
145 120 149 120 122 88 77 79 78 71 63 57 57 55 52 48 44 39 28 33 47 34 45 43 56 63 76 87 97 97 94 117 121 122 119 122 121 120 119 120 137 115 109
112 108 104 94 86 85 84 82 80 72 66 62 53 47 47 46 43 40 35 27 35 35 29 22 37 92 83 84 91 104 108 117 136 130 122 117 117 118 121 127 121 113 121
69 62 82 88 83 79 72 65 63 68 66 62 58 49 43 41 39 37 36 30 23 24 18 34 38 35 72 73 65 88 71 53 112 117 127 115 120 125 136 129 119 120 122
82 74 78 77 75 70 65 63 63 59 59 58 54 50 41 37 33 31 31 30 27 23 26 29 26 26 28 32 65 67 45 37 91 133 160 134 130 133 138 129 127 127 120
79 80 75 72 71 69 67 62 58 55 52 47 50 48 36 42 38 31 27 24 22 20 19 24 25 25 23 19 27 18 20 44 84 214 160 193 139 138 150 154 138 134 150
75 74 72 72 71 66 62 58 57 56 53 48 43 38 43 47 36 29 24 24 19 15 14 12 13 17 14 9 11 1 352 330 287 244 222 165 249 129 175 173 157 150 156
81 73 75 68 65 59 57 54 50 45 44 38 45 46 48 41 39 33 30 27 21 14 13 6 3 3 5 0 357 2 350 331 281 251 258 243 217 191 186 178 171 173 164
88 83 75 72 68 61 56 51 43 37 36 41 43 40 41 38 41 41 38 31 26 19 13 4 356 350 345 341 344 345 345 328 268 271 268 248 181 204 197 192 184 177 173
89 81 79 78 66 61 64 61 57 52 52 55 54 52 45 40 32 33 33 30 23 22 16 11 354 339 337 316 314 322 326 317 291 275 270 251 178 211 204 198 191 191 185
84 78 73 68 64 59 56 49 48 46 57 66 69 63 54 49 37 29 20 19 8 7 7 8 8 2 343 326 280 301 301 290 268 278 272 261 214 214 204 202 202 200 196
84 74 69 61 56 44 39 36 33 42 63 75 79 68 63 45 33 20 19 5 356 348 347 348 351 357 353 326 309 289 287 266 269 260 265 222 224 226 215 202 206 208 207
77 69 63 49 40 24 12 9 12 28 47 50 60 58 58 48 28 8 4 1 349 343 333 334 332 327 328 324 257 244 268 271 270 263 256 277 234 230 218 213 208 207 208
99 84 63 49 30 28 19 359 7 26 59 72 60 39 39 18 15 6 353 356 350 350 335 327 321 310 319 318 261 280 278 272 265 286 294 289 254 229 226 222 210 211 210
110 97 74 51 56 44 28 17 357 5 63 67 49 26 21 7 7 0 360 351 347 349 338 337 322 318 308 306 298 268 249 256 242 262 289 296 269 240 228 221 217 217 215
124 103 67 58 54 47 41 30 27 54 67 43 34 35 13 2 356 345 346 341 341 340 337 328 327 316 310 301 291 283 259 266 255 250 249 274 326 229 223 224 226 228 226
140 105 73 76 67 46 48 36 20 24 16 6 5 8 358 351 345 350 341 341 338 341 338 326 321 312 305 297 291 284 279 262 267 263 250 235 255 334 251 205 223 241 246
148 124 114 83 67 42 35 37 25 337 332 308 337 336 342 347 347 337 344 346 346 340 330 325 320 301 293 290 291 284 287 275 272 267 259 235 224 219 240 270 247 220 246
151 176 138 57 52 35 29 28 12 356 343 326 317 329 346 347 336 330 348 347 346 329 333 332 323 314 297 289 292 287 284 273 267 267 268 262 215 206 219 236 228 227 239
192 199 181 79 40 18 9 14 6 349 327 325 307 309 339 329 336 323 336 342 332 325 323 323 319 309 310 301 286 276 274 274 265 257 252 259 254 233 215 232 239 236 230
256 234 327 53 7 325 337 23 350 334 335 301 294 332 326 324 318 313 318 328 324 327 332 335 320 312 290 298 292 284 278 271 267 261 256 246 240 245 243 223 225 247 243
271 268 257 235 349 352 356 359 345 346 331 311 314 320 325 325 323 316 322 329 339 332 331 332 328 310 308 299 290 288 275 258 252 249 244 246 244 232 234 236 222 229 225
240 245 248 240 276 295 297 335 295 307 304 317 326 323 324 331 328 322 322 322 333 327 332 337 335 312 289 297 304 294 294 288 223 242 243 237 236 240 228 228 231 223 239
241 246 245 236 222 244 267 267 262 269 273 300 344 331 338 325 321 322 321 321 324 311 317 318 321 296 293 307 271 284 297 300 326 172 185 231 280 249 239 224 225 224 226
251 250 230 216 213 229 252 285 302 307 305 316 302 315 312 312 312 312 305 316 305 302 300 314 309 276 249 275 292 250 256 270 283 290 213 178 2 310 261 226 217 221 213
250 240 216 208 217 229 251 270 285 288 291 292 298 311 317 313 307 311 320 313 307 304 314 313 310 271 270 269 259 275 265 258 244 250 275 257 236 25 263 249 222 196 202
261 255 211 209 223 232 253 253 270 293 305 306 320 308 318 316 313 329 335 309 310 325 330 317 324 286 300 298 288 273 257 249 220 202 230 261 272 327 51 186 185 187 197